Regional Weather Roundup
Issued by NWS

Home | Current Version | Previous Version | Text Only | Print | Product List | Glossary Off
Versions: 1 2 3 4 5 6 7 8 9 10 11 12 13 14 15 16 17 18 19 20 21 22 23 24 25 26 27 28 29 30 31 32 33 34 35 36 37 38 39 40 41 42 43 44 45 46 47 48 49 50

000
ASUS43 KBIS 261702
RWRND

NORTH DAKOTA REGIONAL WEATHER ROUNDUP
NATIONAL WEATHER SERVICE BISMARCK ND
1200 PM CDT TUE SEP 26 2017

NOTE: "FAIR" INDICATES FEW OR NO CLOUDS BELOW 12,000 FEET WITH NO
SIGNIFICANT WEATHER AND/OR OBSTRUCTIONS TO VISIBILITY.


NDZ001>003-009>011-017-261800-
NORTHWEST NORTH DAKOTA

CITY           SKY/WX    TMP DP  RH WIND       PRES   REMARKS
WILLISTON      CLOUDY    52  43  71 W3        30.13S
MINOT          CLOUDY    53  45  74 W5        30.11F
MINOT AFB      CLOUDY    52  45  78 W6        30.10F
$$

NDZ018>021-031>035-040>046-261800-
SOUTHWEST NORTH DAKOTA

CITY           SKY/WX    TMP DP  RH WIND       PRES   REMARKS
BISMARCK       CLOUDY    52  44  74 E5        30.14R
DICKINSON      CLOUDY    50  45  83 VRB3      30.10S
GARRISON         N/A     48  44  86 SE5       30.13R
HETTINGER ARPT CLOUDY    50  43  77 W7        30.13R
$$

NDZ004>008-012>016-024-026-027-054-261800-
NORTHEAST NORTH DAKOTA

CITY           SKY/WX    TMP DP  RH WIND       PRES   REMARKS
GRAND FORKS    RAIN      49  49 100 NW7       30.09R FOG
GRND FRKS AFB  RAIN      48  48  99 NW8       30.10R
DEVILS LAKE    LGT RAIN  46  44  93 N7        30.13S
$$

NDZ022-023-025-028>030-036>039-047>053-261800-
SOUTHEAST NORTH DAKOTA

CITY           SKY/WX    TMP DP  RH WIND       PRES   REMARKS
FARGO          LGT RAIN  52  51  97 NW12      30.07S
JAMESTOWN      CLOUDY    51  47  86 N8        30.10F
$$




USA.gov is the U.S. government's official web portal to all federal, state and local government web resources and services.